Other Public Products
Issued by NWS Grand Forks, ND

Home | Current Version | Previous Version | Text Only | Print | Product List | Glossary On
Versions: 1 2 3 4 5 6 7 8 9 10 11 12 13 14 15 16 17 18 19 20 21 22 23 24 25 26 27 28 29 30 31 32 33 34 35 36 37 38 39 40 41 42 43 44 45 46 47 48 49 50
000
FPUS83 KFGF 291810
OPUFGF
PRAIRIE TO PINES WEATHER ROUNDUP
NATIONAL WEATHER SERVICE EASTERN NORTH DAKOTA/GRAND FORKS ND
100 PM CDT SAT APR 29 2017

 **SATELLITE DATA USED TO AUGMENT SKY COVER AT AUTOMATED STATIONS**
 *****  WEATHER ACROSS EASTERN NORTH DAKOTA  *****

CITY           SKY/WX    TMP DP  RH WIND       PRES   REMARKS
GRAND FORKS    FAIR      56  23  27 S3        30.33S
6HR MIN TEMP:  29; 6HR MAX TEMP:  56;

GRAND FORKS AF FAIR      55  22  28 S6        30.33S
GRAND CITY NWS NOT AVBL
BUXTON         NOT AVBL
DEVILS LAKE    FAIR      56  17  21 SW7       30.31S
6HR MIN TEMP:  28; 6HR MAX TEMP:  56;

FARGO          FAIR      55  18  23 VRB3      30.32F
6HR MIN TEMP:  27; 6HR MAX TEMP:  56;

WAHPETON ARPT  FAIR      52  21  30 CALM      30.33F
$$

 *****  WEATHER ACROSS CENTRAL AND WESTERN NORTH DAKOTA  *****

CITY           SKY/WX    TMP DP  RH WIND       PRES   REMARKS
JAMESTOWN      FAIR      55  16  21 W6        30.30F
6HR MIN TEMP:  28; 6HR MAX TEMP:  56;

BISMARCK       FAIR      61  19  19 CALM      30.29F
6HR MIN TEMP:  25; 6HR MAX TEMP:  61;

MINOT          FAIR      62  24  23 SW16G24   30.23S
6HR MIN TEMP:  42; 6HR MAX TEMP:  62;

MINOT AFB      FAIR      62  26  24 W13       30.21F
6HR MIN TEMP:  38; 6HR MAX TEMP:  63;

GARRISON         N/A     59  21  23 S13G20    30.25F
6HR MIN TEMP:  29; 6HR MAX TEMP:  60;

WILLISTON      FAIR      59  31  34 VRB3      30.25F
6HR MIN TEMP:  28; 6HR MAX TEMP:  60;

DICKINSON      FAIR      57  17  21 S8G17     30.23F
6HR MIN TEMP:  29; 6HR MAX TEMP:  57;

HETTINGER      FAIR      54  20  26 S7        30.28F
6HR MIN TEMP:  24; 6HR MAX TEMP:  54;

$$

 *****  OTHER OBSERVATIONS NORTHEAST NORTH DAKOTA  *****

CITY           SKY/WX    TMP DP  RH WIND       PRES   REMARKS
WALHALLA       NOT AVBL
LANGDON        FAIR      59  19  21 S13       30.30R
CAVALIER       FAIR      55  25  30 S12G17    30.31S
GRAFTON        FAIR      54  23  30 S8        30.35F
CANDO          NOT AVBL
FORT TOTTEN      N/A     57  15  19 SW7       29.95S
ROLLA          FAIR      57  21  24 S14       30.26S
RUGBY          NOT AVBL
 ***** THE ABOVE OBSERVATIONS ARE NON NWS ARE NOT QUALITY
        CONTROLLED AND MAY MIS-REPORT RAIN FOR SNOW...
$$

 *****  OTHER OBSERVATIONS SOUTHEAST NORTH DAKOTA *****

CITY           SKY/WX    TMP DP  RH WIND       PRES   REMARKS
COOPERSTOWN    FAIR      55  23  28 SW3       30.31F
VALLEY CITY    FAIR      54  16  22 VRB5      30.32F
OAKES          NOT AVBL
GWINNER        CLEAR     54  14  20 MISG      30.31F
SHEYENNE NWR     N/A     55  17  22 CALM      29.95S
BUFFALO        NOT AVBL
WYNDMERE         N/A     55  21  26 SE3         N/A
 ***** THE ABOVE OBSERVATIONS ARE NON NWS ARE NOT QUALITY
       CONTROLLED AND MAY MIS-REPORT RAIN FOR SNOW...
$$

  *****  WEATHER ACROSS NORTHERN MINNESOTA  *****

CITY           SKY/WX    TMP DP  RH WIND       PRES   REMARKS
FLAG ISLAND    FAIR      43  25  49 SE6       30.33F
WARROAD        FAIR      50  30  46 NE8       30.33F
ROSEAU         FAIR      52  19  28 S3        30.32F
HALLOCK        FAIR      55  18  22 S8        30.33R
THF RVR FALLS  FAIR      51  14  22 CALM      30.34R
6HR MIN TEMP:  29; 6HR MAX TEMP:  52;

HALSTAD          N/A     53  21  28 NW3         N/A
FOSSTON        FAIR      52  18  25 SW5       30.33S
BAUDETTE       FAIR      54  13  19 NE5       30.32S
6HR MIN TEMP:  27; 6HR MAX TEMP:  55;

WASKISH        PTSUNNY   50  28  43 W9        30.33S
CROOKSTON      FAIR      52  19  28 CALM      30.34S
$$
  *****  WEATHER ACROSS CENTRAL AND WEST MINNESOTA  *****

CITY           SKY/WX    TMP DP  RH WIND       PRES   REMARKS
BEMIDJI        FAIR      51  19  28 N3        30.32S
PARK RAPIDS    FAIR      53  21  28 VRB7      30.31S
6HR MIN TEMP:  27; 6HR MAX TEMP:  53;

WADENA         FAIR      52  27  37 CALM      30.32R
DETROIT LAKES  FAIR      52  21  30 CALM      30.32F
MOORHEAD       FAIR      54  19  26 CALM      30.33F
FERGUS FALLS   FAIR      50  25  37 W6        30.31F
ELBOW LAKE     FAIR      51  24  34 N10G17    30.31F
6HR MIN TEMP:  33; 6HR MAX TEMP:  51;

MORRIS MN      FAIR      54  21  28 SE3       30.29F
STAPLES        FAIR      52  18  25 N6        30.32S
WHEATON        FAIR      52  19  28 NE5       30.33F
$$
  *****  WEATHER ELSEWHERE ACROSS MINNESOTA  *****

CITY           SKY/WX    TMP DP  RH WIND       PRES   REMARKS
DULUTH         FAIR      47  22  37 E8        30.32S
6HR MIN TEMP:  33; 6HR MAX TEMP:  48;

INTRNTL FALLS  FAIR      51  16  24 VRB3      30.32F
6HR MIN TEMP:  26; 6HR MAX TEMP:  52;

ELY            FAIR      46   9  21 E3        30.31S
CLOQUET        FAIR      48  12  23 CALM      30.31R
BRAINERD       FAIR      51  20  29 N10       30.32R
6HR MIN TEMP:  27; 6HR MAX TEMP:  51;

HIBBING        FAIR      49  19  30 N12       30.31S
6HR MIN TEMP:  23; 6HR MAX TEMP:  49;

ALEXANDRIA     FAIR      50  22  33 VRB3      30.32S
6HR MIN TEMP:  32; 6HR MAX TEMP:  51;

SAINT CLOUD    FAIR      50  24  36 NE12      30.31R
6HR MIN TEMP:  30; 6HR MAX TEMP:  50;

MINNEAPOLIS    CLOUDY    52  23  32 E14       30.28R
6HR MIN TEMP:  39; 6HR MAX TEMP:  52;

$$

  *****  WEATHER ACROSS SOUTH DAKOTA  *****

CITY           SKY/WX    TMP DP  RH WIND       PRES   REMARKS
SIOUX FALLS    PTSUNNY   52  31  44 E20       30.21F
6HR MIN TEMP:  36; 6HR MAX TEMP:  52;

BROOKINGS      FAIR      49  21  33 NE16G23   30.24F
WATERTOWN      FAIR      50  22  33 NE10      30.25F
6HR MIN TEMP:  25; 6HR MAX TEMP:  51;

HURON          FAIR      53  20  27 E8G20     30.27F
6HR MIN TEMP:  24; 6HR MAX TEMP:  54;

SISSETON         N/A     53  23  31 CALM      30.29F
ABERDEEN       FAIR      54  15  21 VRB6      30.29F
6HR MIN TEMP:  25; 6HR MAX TEMP:  54;

MITCHELL       FAIR      55  22  27 NE15G25   30.25F
PIERRE         LGT RAIN  56  17  21 NE12G21   30.24F
6HR MIN TEMP:  30; 6HR MAX TEMP:  56; 6HR PCP: TRACE;

MOBRIDGE       FAIR      58  15  18 W5        30.24F
RAPID CITY     FAIR      51  19  28 NE8       30.26F
6HR MIN TEMP:  27; 6HR MAX TEMP:  51;

$$

  *****  SOME WEATHER IN NEARBY STATES *****

CITY           SKY/WX    TMP DP  RH WIND       PRES   REMARKS
GLASGOW MT     FAIR      56  29  35 S12G17    30.23F
6HR MIN TEMP:  31; 6HR MAX TEMP:  56;

GREAT FALLS MT PTSUNNY   52  29  41 SW9       30.18S
6HR MIN TEMP:  30; 6HR MAX TEMP:  54;

CHEYENNE WY    CLOUDY    30  21  69 NE14G24   30.20S WCI  19
6HR MIN TEMP:  26; 6HR MAX TEMP:  30; 6HR PCP:  0.01;

SCOTTSBLUFF NE FAIR      42  24  49 N14       30.26S
6HR MIN TEMP:  32; 6HR MAX TEMP:  42;

OMAHA NE       LGT RAIN  45  36  70 NE21G31   30.12R
6HR MIN TEMP:  43; 6HR MAX TEMP:  46; 6HR PCP: TRACE;

DES MOINES IA  LGT RAIN  44  40  85 NE15      30.13R FOG
6HR MIN TEMP:  44; 6HR MAX TEMP:  46; 6HR PCP:  0.23;

DAVENPORT IA   RAIN      42  39  89 NE23G31   30.08F FOG
6HR MIN TEMP:  42; 6HR MAX TEMP:  47; 6HR PCP:  0.23;

CHICAGO IL     LGT RAIN  42  35  76 NE16G25   30.19F
6HR MIN TEMP:  42; 6HR MAX TEMP:  46; 6HR PCP:  0.02;

EAU CLAIRE WI  FAIR      51  24  34 NE13      30.26S
6HR MIN TEMP:  35; 6HR MAX TEMP:  53;

LA CROSSE WI   FAIR      49  27  42 E10       30.24R
6HR MIN TEMP:  39; 6HR MAX TEMP:  49;

$$

  *****  SOME NATIONAL WEATHER *****

CITY           SKY/WX    TMP DP  RH WIND       PRES   REMARKS
LA GUARDIA NY  PTSUNNY   85  60  42 W12       29.93F


USA.gov is the U.S. government's official web portal to all federal, state and local government web resources and services.